Time,TemperatureF,DewpointF,PressureIn,WindDirection,WindDirectionDegrees,WindSpeedMPH,WindSpeedGustMPH,Humidity,HourlyPrecipIn,Conditions,Clouds,dailyrainin,SoftwareType,DateUTC
2013-04-10 00:00:00,61.0,54.8,30.03,NE,52,0.0,0.0,80,0.00,,---,0.00,VWS V14.01,2013-04-10 04:00:00,
2013-04-10 00:05:00,60.6,54.8,30.03,NE,53,0.0,0.0,81,0.00,,---,0.00,VWS V14.01,2013-04-10 04:05:00,
2013-04-10 00:10:00,60.3,54.8,30.03,NE,52,0.0,0.0,82,0.00,,---,0.00,VWS V14.01,2013-04-10 04:10:00,
2013-04-10 00:15:00,60.1,54.9,30.03,NE,52,0.0,0.0,83,0.00,,---,0.00,VWS V14.01,2013-04-10 04:15:00,
2013-04-10 00:20:00,59.9,54.7,30.03,NE,52,0.0,0.0,83,0.00,,---,0.00,VWS V14.01,2013-04-10 04:20:00,
2013-04-10 00:25:00,59.9,54.7,30.03,NE,52,0.0,0.0,83,0.00,,---,0.00,VWS V14.01,2013-04-10 04:25:00,
2013-04-10 00:30:00,59.8,54.6,30.03,NE,53,0.0,0.0,83,0.00,,---,0.00,VWS V14.01,2013-04-10 04:30:00,
2013-04-10 00:35:00,61.2,55.0,30.04,NE,52,0.0,0.0,80,0.00,,---,0.00,VWS V14.01,2013-04-10 04:35:00,
2013-04-10 00:36:00,59.6,54.4,30.03,NE,52,0.0,0.0,83,0.00,,---,0.00,VWS V14.01,2013-04-10 04:36:00,
2013-04-10 00:40:00,61.0,54.8,30.03,NE,52,0.0,0.0,80,0.00,,---,0.00,VWS V14.01,2013-04-10 04:40:00,
2013-04-10 00:41:00,59.3,54.2,30.03,NE,52,0.0,0.0,83,0.00,,---,0.00,VWS V14.01,2013-04-10 04:41:00,
2013-04-10 00:45:00,61.1,54.9,30.04,NE,52,0.0,0.0,80,0.00,,---,0.00,VWS V14.01,2013-04-10 04:45:00,
2013-04-10 00:46:00,59.0,54.5,30.03,NE,52,0.0,0.0,85,0.00,,---,0.00,VWS V14.01,2013-04-10 04:46:00,
2013-04-10 00:50:00,61.2,55.0,30.03,NE,52,0.0,0.0,80,0.00,,---,0.00,VWS V14.01,2013-04-10 04:50:00,
2013-04-10 00:51:00,58.9,54.4,30.02,NE,53,0.0,0.0,85,0.00,,---,0.00,VWS V14.01,2013-04-10 04:51:00,
2013-04-10 00:55:00,61.2,55.0,30.03,NE,52,0.0,0.0,80,0.00,,---,0.00,VWS V14.01,2013-04-10 04:55:00,
2013-04-10 00:56:00,59.0,54.5,30.02,NE,53,0.0,0.0,85,0.00,,---,0.00,VWS V14.01,2013-04-10 04:56:00,
2013-04-10 01:00:00,61.0,54.8,30.03,NE,52,0.0,0.0,80,0.00,,---,0.00,VWS V14.01,2013-04-10 05:00:00,
2013-04-10 01:02:00,58.9,54.4,30.02,NE,52,0.0,0.0,85,0.00,,---,0.00,VWS V14.01,2013-04-10 05:02:00,
2013-04-10 01:05:00,60.7,54.8,30.03,NE,53,0.0,0.0,81,0.00,,---,0.00,VWS V14.01,2013-04-10 05:05:00,
2013-04-10 01:07:00,59.0,54.5,30.02,NE,53,0.0,0.0,85,0.00,,---,0.00,VWS V14.01,2013-04-10 05:07:00,
2013-04-10 01:10:00,60.3,54.8,30.03,NE,52,0.0,0.0,82,0.00,,---,0.00,VWS V14.01,2013-04-10 05:10:00,
2013-04-10 01:12:00,59.0,54.5,30.02,NE,52,0.0,0.0,85,0.00,,---,0.00,VWS V14.01,2013-04-10 05:12:00,
2013-04-10 01:15:00,60.1,54.9,30.03,NE,52,0.0,0.0,83,0.00,,---,0.00,VWS V14.01,2013-04-10 05:15:00,
2013-04-10 01:17:00,58.9,54.4,30.02,NE,52,0.0,0.0,85,0.00,,---,0.00,VWS V14.01,2013-04-10 05:17:00,
2013-04-10 01:20:00,59.9,54.7,30.03,NE,52,0.0,0.0,83,0.00,,---,0.00,VWS V14.01,2013-04-10 05:20:00,
2013-04-10 01:22:00,59.0,54.5,30.02,NE,52,0.0,0.0,85,0.00,,---,0.00,VWS V14.01,2013-04-10 05:22:00,
2013-04-10 01:25:00,59.9,54.7,30.03,NE,52,0.0,0.0,83,0.00,,---,0.00,VWS V14.01,2013-04-10 05:25:00,
2013-04-10 01:27:00,58.9,54.4,30.02,NE,52,0.0,0.0,85,0.00,,---,0.00,VWS V14.01,2013-04-10 05:27:00,
2013-04-10 01:30:00,59.9,54.7,30.03,NE,52,0.0,0.0,83,0.00,,---,0.00,VWS V14.01,2013-04-10 05:30:00,
2013-04-10 01:32:00,58.8,54.6,30.02,NE,53,0.0,0.0,86,0.00,,---,0.00,VWS V14.01,2013-04-10 05:32:00,
2013-04-10 01:35:00,59.6,54.4,30.03,NE,52,0.0,0.0,83,0.00,,---,0.00,VWS V14.01,2013-04-10 05:35:00,
2013-04-10 01:37:00,58.7,54.5,30.02,NE,52,0.0,0.0,86,0.00,,---,0.00,VWS V14.01,2013-04-10 05:37:00,
2013-04-10 01:40:00,59.4,54.6,30.03,NE,53,0.0,0.0,84,0.00,,---,0.00,VWS V14.01,2013-04-10 05:40:00,
2013-04-10 01:42:00,58.5,54.3,30.02,NE,52,0.0,0.0,86,0.00,,---,0.00,VWS V14.01,2013-04-10 05:42:00,
2013-04-10 01:45:00,59.1,54.3,30.03,NE,52,0.0,0.0,84,0.00,,---,0.00,VWS V14.01,2013-04-10 05:45:00,
2013-04-10 01:47:00,58.4,54.2,30.02,NE,53,0.0,0.0,86,0.00,,---,0.00,VWS V14.01,2013-04-10 05:47:00,
2013-04-10 01:50:00,58.9,54.4,30.03,NE,52,0.0,0.0,85,0.00,,---,0.00,VWS V14.01,2013-04-10 05:50:00,
2013-04-10 01:52:00,58.2,54.4,30.02,NE,52,0.0,0.0,87,0.00,,---,0.00,VWS V14.01,2013-04-10 05:52:00,
2013-04-10 01:55:00,59.0,54.5,30.02,NE,52,0.0,0.0,85,0.00,,---,0.00,VWS V14.01,2013-04-10 05:55:00,
2013-04-10 01:57:00,58.2,54.4,30.02,NE,53,0.0,0.0,87,0.00,,---,0.00,VWS V14.01,2013-04-10 05:57:00,
2013-04-10 02:00:00,58.9,54.1,30.02,NE,52,0.0,0.0,84,0.00,,---,0.00,VWS V14.01,2013-04-10 06:00:00,
2013-04-10 02:02:00,58.2,54.4,30.01,NE,52,0.0,0.0,87,0.00,,---,0.00,VWS V14.01,2013-04-10 06:02:00,
2013-04-10 02:05:00,58.9,54.4,30.02,NE,53,0.0,0.0,85,0.00,,---,0.00,VWS V14.01,2013-04-10 06:05:00,
2013-04-10 02:07:00,58.3,54.1,30.01,NE,53,0.0,0.0,86,0.00,,---,0.00,VWS V14.01,2013-04-10 06:07:00,
2013-04-10 02:10:00,59.0,54.5,30.02,NE,52,0.0,0.0,85,0.00,,---,0.00,VWS V14.01,2013-04-10 06:10:00,
2013-04-10 02:12:00,58.3,54.1,30.01,NE,53,0.0,0.0,86,0.00,,---,0.00,VWS V14.01,2013-04-10 06:12:00,
2013-04-10 02:15:00,58.9,54.4,30.02,NE,52,0.0,0.0,85,0.00,,---,0.00,VWS V14.01,2013-04-10 06:15:00,
2013-04-10 02:18:00,58.1,54.3,30.01,NE,52,0.0,0.0,87,0.00,,---,0.00,VWS V14.01,2013-04-10 06:18:00,
2013-04-10 02:20:00,59.0,54.5,30.02,NE,53,0.0,0.0,85,0.00,,---,0.00,VWS V14.01,2013-04-10 06:20:00,
2013-04-10 02:23:00,57.8,54.3,30.01,NE,52,0.0,0.0,88,0.00,,---,0.00,VWS V14.01,2013-04-10 06:23:00,
2013-04-10 02:25:00,59.0,54.5,30.02,NE,52,0.0,0.0,85,0.00,,---,0.00,VWS V14.01,2013-04-10 06:25:00,
2013-04-10 02:28:00,57.5,54.0,30.01,NE,53,0.0,0.0,88,0.00,,---,0.00,VWS V14.01,2013-04-10 06:28:00,
2013-04-10 02:30:00,58.8,54.3,30.02,NE,52,0.0,0.0,85,0.00,,---,0.00,VWS V14.01,2013-04-10 06:30:00,
2013-04-10 02:33:00,57.2,53.7,30.01,NE,53,0.0,0.0,88,0.00,,---,0.00,VWS V14.01,2013-04-10 06:33:00,
2013-04-10 02:35:00,58.8,54.6,30.02,NE,52,0.0,0.0,86,0.00,,---,0.00,VWS V14.01,2013-04-10 06:35:00,
2013-04-10 02:38:00,57.1,53.9,30.01,NE,52,0.0,0.0,89,0.00,,---,0.00,VWS V14.01,2013-04-10 06:38:00,
2013-04-10 02:40:00,58.6,54.4,30.02,NE,52,0.0,0.0,86,0.00,,---,0.00,VWS V14.01,2013-04-10 06:40:00,
2013-04-10 02:43:00,56.9,53.7,30.00,NE,52,0.0,0.0,89,0.00,,---,0.00,VWS V14.01,2013-04-10 06:43:00,
2013-04-10 02:45:00,58.4,54.2,30.02,NE,53,0.0,0.0,86,0.00,,---,0.00,VWS V14.01,2013-04-10 06:45:00,
2013-04-10 02:48:00,56.9,54.0,30.00,NE,52,0.0,0.0,90,0.00,,---,0.00,VWS V14.01,2013-04-10 06:48:00,
2013-04-10 02:50:00,58.3,54.1,30.02,NE,52,0.0,0.0,86,0.00,,---,0.00,VWS V14.01,2013-04-10 06:50:00,
2013-04-10 02:53:00,56.8,53.6,30.00,NE,52,0.0,0.0,89,0.00,,---,0.00,VWS V14.01,2013-04-10 06:53:00,
2013-04-10 02:55:00,58.2,54.4,30.02,NE,53,0.0,0.0,87,0.00,,---,0.00,VWS V14.01,2013-04-10 06:55:00,
2013-04-10 02:58:00,56.8,53.9,30.00,NE,52,0.0,0.0,90,0.00,,---,0.00,VWS V14.01,2013-04-10 06:58:00,
2013-04-10 03:00:00,58.2,54.4,30.02,NE,52,0.0,0.0,87,0.00,,---,0.00,VWS V14.01,2013-04-10 07:00:00,
2013-04-10 03:03:00,56.8,53.6,30.00,NE,53,0.0,0.0,89,0.00,,---,0.00,VWS V14.01,2013-04-10 07:03:00,
2013-04-10 03:05:00,58.3,54.1,30.01,NE,52,0.0,0.0,86,0.00,,---,0.00,VWS V14.01,2013-04-10 07:05:00,
2013-04-10 03:08:00,56.8,53.6,30.00,NE,52,0.0,0.0,89,0.00,,---,0.00,VWS V14.01,2013-04-10 07:08:00,
2013-04-10 03:10:00,58.4,54.2,30.01,NE,52,0.0,0.0,86,0.00,,---,0.00,VWS V14.01,2013-04-10 07:10:00,
2013-04-10 03:13:00,56.6,53.7,30.00,NE,53,0.0,0.0,90,0.00,,---,0.00,VWS V14.01,2013-04-10 07:13:00,
2013-04-10 03:15:00,58.2,54.4,30.01,NE,53,0.0,0.0,87,0.00,,---,0.00,VWS V14.01,2013-04-10 07:15:00,
2013-04-10 03:18:00,56.4,53.5,29.99,NE,52,0.0,0.0,90,0.00,,---,0.00,VWS V14.01,2013-04-10 07:18:00,
2013-04-10 03:20:00,57.9,54.1,30.01,NE,52,0.0,0.0,87,0.00,,---,0.00,VWS V14.01,2013-04-10 07:20:00,
2013-04-10 03:23:00,56.3,53.7,29.99,NE,52,0.0,0.0,91,0.00,,---,0.00,VWS V14.01,2013-04-10 07:23:00,
2013-04-10 03:25:00,57.6,54.1,30.01,NE,52,0.0,0.0,88,0.00,,---,0.00,VWS V14.01,2013-04-10 07:25:00,
2013-04-10 03:28:00,56.3,53.7,29.99,NE,52,0.0,0.0,91,0.00,,---,0.00,VWS V14.01,2013-04-10 07:28:00,
2013-04-10 03:30:00,57.4,53.9,30.01,NE,53,0.0,0.0,88,0.00,,---,0.00,VWS V14.01,2013-04-10 07:30:00,
2013-04-10 03:33:00,56.1,53.5,29.99,NE,53,0.0,0.0,91,0.00,,---,0.00,VWS V14.01,2013-04-10 07:33:00,
2013-04-10 03:35:00,57.1,53.9,30.01,NE,52,0.0,0.0,89,0.00,,---,0.00,VWS V14.01,2013-04-10 07:35:00,
2013-04-10 03:38:00,56.0,53.4,29.99,NE,52,0.0,0.0,91,0.00,,---,0.00,VWS V14.01,2013-04-10 07:38:00,
2013-04-10 03:40:00,57.0,53.8,30.01,NE,52,0.0,0.0,89,0.00,,---,0.00,VWS V14.01,2013-04-10 07:40:00,
2013-04-10 03:43:00,55.9,53.3,29.99,NE,52,0.0,0.0,91,0.00,,---,0.00,VWS V14.01,2013-04-10 07:43:00,
2013-04-10 03:45:00,56.8,53.6,30.00,NE,53,0.0,0.0,89,0.00,,---,0.00,VWS V14.01,2013-04-10 07:45:00,
2013-04-10 03:48:00,55.8,53.2,29.99,NE,52,0.0,0.0,91,0.00,,---,0.00,VWS V14.01,2013-04-10 07:48:00,
2013-04-10 03:50:00,56.9,53.7,30.00,NE,52,0.0,0.0,89,0.00,,---,0.00,VWS V14.01,2013-04-10 07:50:00,
2013-04-10 03:53:00,55.9,53.6,29.99,NE,52,0.0,0.0,92,0.00,,---,0.00,VWS V14.01,2013-04-10 07:53:00,
2013-04-10 03:55:00,56.8,53.6,30.00,NE,52,0.0,0.0,89,0.00,,---,0.00,VWS V14.01,2013-04-10 07:55:00,
2013-04-10 03:58:00,55.9,53.3,29.99,NE,53,0.0,0.0,91,0.00,,---,0.00,VWS V14.01,2013-04-10 07:58:00,
2013-04-10 04:00:00,56.8,53.9,30.00,NE,52,0.0,0.0,90,0.00,,---,0.00,VWS V14.01,2013-04-10 08:00:00,
2013-04-10 04:03:00,55.8,53.2,29.99,NE,53,0.0,0.0,91,0.00,,---,0.00,VWS V14.01,2013-04-10 08:03:00,
2013-04-10 04:05:00,56.8,53.6,30.00,NE,53,0.0,0.0,89,0.00,,---,0.00,VWS V14.01,2013-04-10 08:05:00,
2013-04-10 04:08:00,55.6,53.3,29.99,NE,52,0.0,0.0,92,0.00,,---,0.00,VWS V14.01,2013-04-10 08:08:00,
2013-04-10 04:10:00,56.7,53.5,30.00,NE,53,0.0,0.0,89,0.00,,---,0.00,VWS V14.01,2013-04-10 08:10:00,
2013-04-10 04:13:00,55.6,53.3,29.99,NE,53,0.0,0.0,92,0.00,,---,0.00,VWS V14.01,2013-04-10 08:13:00,
2013-04-10 04:15:00,56.5,53.6,29.99,NE,52,0.0,0.0,90,0.00,,---,0.00,VWS V14.01,2013-04-10 08:15:00,
2013-04-10 04:18:00,55.4,53.1,29.99,NE,52,0.0,0.0,92,0.00,,---,0.00,VWS V14.01,2013-04-10 08:18:00,
2013-04-10 04:20:00,56.4,53.8,29.99,NE,52,0.0,0.0,91,0.00,,---,0.00,VWS V14.01,2013-04-10 08:20:00,
2013-04-10 04:23:00,55.3,53.3,29.99,NE,52,0.0,0.0,93,0.00,,---,0.00,VWS V14.01,2013-04-10 08:23:00,
2013-04-10 04:25:00,56.3,53.7,29.99,NE,52,0.0,0.0,91,0.00,,---,0.00,VWS V14.01,2013-04-10 08:25:00,
2013-04-10 04:28:00,55.4,53.4,29.99,NE,52,0.0,0.0,93,0.00,,---,0.00,VWS V14.01,2013-04-10 08:28:00,
2013-04-10 04:30:00,56.2,53.6,29.99,NE,52,0.0,0.0,91,0.00,,---,0.00,VWS V14.01,2013-04-10 08:30:00,
2013-04-10 04:33:00,55.2,52.9,29.99,NE,52,0.0,0.0,92,0.00,,---,0.00,VWS V14.01,2013-04-10 08:33:00,
2013-04-10 04:35:00,56.1,53.5,29.99,NE,52,0.0,0.0,91,0.00,,---,0.00,VWS V14.01,2013-04-10 08:35:00,
2013-04-10 04:38:00,55.1,52.8,29.99,NE,53,0.0,0.0,92,0.00,,---,0.00,VWS V14.01,2013-04-10 08:38:00,
2013-04-10 04:40:00,56.0,53.4,29.99,NE,52,0.0,0.0,91,0.00,,---,0.00,VWS V14.01,2013-04-10 08:40:00,
2013-04-10 04:43:00,55.0,53.0,29.98,NE,52,0.0,0.0,93,0.00,,---,0.00,VWS V14.01,2013-04-10 08:43:00,
2013-04-10 04:45:00,55.9,53.3,29.99,NE,52,0.0,0.0,91,0.00,,---,0.00,VWS V14.01,2013-04-10 08:45:00,
2013-04-10 04:48:00,54.8,52.8,29.98,NE,52,0.0,0.0,93,0.00,,---,0.00,VWS V14.01,2013-04-10 08:48:00,
2013-04-10 04:50:00,55.9,53.6,29.99,NE,52,0.0,0.0,92,0.00,,---,0.00,VWS V14.01,2013-04-10 08:50:00,
2013-04-10 04:53:00,54.7,52.7,29.98,NE,52,0.0,0.0,93,0.00,,---,0.00,VWS V14.01,2013-04-10 08:53:00,
2013-04-10 04:55:00,56.0,53.7,29.99,NE,53,0.0,0.0,92,0.00,,---,0.00,VWS V14.01,2013-04-10 08:55:00,
2013-04-10 04:58:00,54.7,53.0,29.98,NE,53,0.0,0.0,94,0.00,,---,0.00,VWS V14.01,2013-04-10 08:58:00,
2013-04-10 05:00:00,55.9,53.3,29.99,NE,52,0.0,0.0,91,0.00,,---,0.00,VWS V14.01,2013-04-10 09:00:00,
2013-04-10 05:03:00,54.6,52.9,29.98,NE,52,0.0,0.0,94,0.00,,---,0.00,VWS V14.01,2013-04-10 09:03:00,
2013-04-10 05:05:00,55.7,53.1,29.99,NE,52,0.0,0.0,91,0.00,,---,0.00,VWS V14.01,2013-04-10 09:05:00,
2013-04-10 05:08:00,54.6,52.9,29.98,NE,52,0.0,0.0,94,0.00,,---,0.00,VWS V14.01,2013-04-10 09:08:00,
2013-04-10 05:10:00,55.6,53.3,29.99,NE,52,0.0,0.0,92,0.00,,---,0.00,VWS V14.01,2013-04-10 09:10:00,
2013-04-10 05:13:00,54.6,52.9,29.98,NE,53,0.0,0.0,94,0.00,,---,0.00,VWS V14.01,2013-04-10 09:13:00,
2013-04-10 05:15:00,55.5,53.2,29.99,NE,52,0.0,0.0,92,0.00,,---,0.00,VWS V14.01,2013-04-10 09:15:00,
2013-04-10 05:18:00,54.6,52.9,29.99,NE,52,0.0,0.0,94,0.00,,---,0.00,VWS V14.01,2013-04-10 09:18:00,
2013-04-10 05:20:00,55.4,53.1,29.99,NE,52,0.0,0.0,92,0.00,,---,0.00,VWS V14.01,2013-04-10 09:20:00,
2013-04-10 05:23:00,54.5,52.8,29.99,NE,53,0.0,0.0,94,0.00,,---,0.00,VWS V14.01,2013-04-10 09:23:00,
2013-04-10 05:25:00,55.4,53.4,29.99,NE,52,0.0,0.0,93,0.00,,---,0.00,VWS V14.01,2013-04-10 09:25:00,
2013-04-10 05:29:00,54.5,52.8,29.99,NE,52,0.0,0.0,94,0.00,,---,0.00,VWS V14.01,2013-04-10 09:29:00,
2013-04-10 05:30:00,55.3,53.0,29.99,NE,53,0.0,0.0,92,0.00,,---,0.00,VWS V14.01,2013-04-10 09:30:00,
2013-04-10 05:34:00,54.4,52.7,29.99,NE,53,0.0,0.0,94,0.00,,---,0.00,VWS V14.01,2013-04-10 09:34:00,
2013-04-10 05:35:00,55.2,52.9,29.99,NE,52,0.0,0.0,92,0.00,,---,0.00,VWS V14.01,2013-04-10 09:35:00,
2013-04-10 05:39:00,54.2,52.5,29.99,NE,52,0.0,0.0,94,0.00,,---,0.00,VWS V14.01,2013-04-10 09:39:00,
2013-04-10 05:40:00,55.1,53.1,29.98,NE,52,0.0,0.0,93,0.00,,---,0.00,VWS V14.01,2013-04-10 09:40:00,
2013-04-10 05:44:00,54.2,52.5,29.99,NE,53,0.0,0.0,94,0.00,,---,0.00,VWS V14.01,2013-04-10 09:44:00,
2013-04-10 05:45:00,54.9,52.9,29.98,NE,52,0.0,0.0,93,0.00,,---,0.00,VWS V14.01,2013-04-10 09:45:00,
2013-04-10 05:49:00,54.1,52.4,29.99,NE,52,0.0,0.0,94,0.00,,---,0.00,VWS V14.01,2013-04-10 09:49:00,
2013-04-10 05:50:00,54.7,52.7,29.98,NE,52,0.0,0.0,93,0.00,,---,0.00,VWS V14.01,2013-04-10 09:50:00,
2013-04-10 05:54:00,53.8,52.1,29.99,NE,52,0.0,0.0,94,0.00,,---,0.00,VWS V14.01,2013-04-10 09:54:00,
2013-04-10 05:55:00,54.7,53.0,29.98,NE,52,0.0,0.0,94,0.00,,---,0.00,VWS V14.01,2013-04-10 09:55:00,
2013-04-10 05:59:00,53.9,52.5,29.99,NE,52,0.0,0.0,95,0.00,,---,0.00,VWS V14.01,2013-04-10 09:59:00,
2013-04-10 06:00:00,54.6,52.9,29.98,NE,52,0.0,0.0,94,0.00,,---,0.00,VWS V14.01,2013-04-10 10:00:00,
2013-04-10 06:04:00,53.8,52.4,29.99,NE,52,0.0,0.0,95,0.00,,---,0.00,VWS V14.01,2013-04-10 10:04:00,
2013-04-10 06:05:00,54.6,52.9,29.98,NE,52,0.0,0.0,94,0.00,,---,0.00,VWS V14.01,2013-04-10 10:05:00,
2013-04-10 06:09:00,53.6,51.9,29.99,NE,52,0.0,0.0,94,0.00,,---,0.00,VWS V14.01,2013-04-10 10:09:00,
2013-04-10 06:10:00,54.6,52.9,29.98,NE,52,0.0,0.0,94,0.00,,---,0.00,VWS V14.01,2013-04-10 10:10:00,
2013-04-10 06:14:00,53.5,52.1,29.99,NE,52,0.0,0.0,95,0.00,,---,0.00,VWS V14.01,2013-04-10 10:14:00,
2013-04-10 06:15:00,54.7,53.0,29.98,NE,52,0.0,0.0,94,0.00,,---,0.00,VWS V14.01,2013-04-10 10:15:00,
2013-04-10 06:19:00,53.5,52.1,29.99,NE,53,0.0,0.0,95,0.00,,---,0.00,VWS V14.01,2013-04-10 10:19:00,
2013-04-10 06:20:00,54.6,52.9,29.99,NE,52,0.0,0.0,94,0.00,,---,0.00,VWS V14.01,2013-04-10 10:20:00,
2013-04-10 06:24:00,53.5,52.4,29.99,NE,53,0.0,0.0,96,0.00,,---,0.00,VWS V14.01,2013-04-10 10:24:00,
2013-04-10 06:25:00,54.5,52.8,29.99,NE,52,0.0,0.0,94,0.00,,---,0.00,VWS V14.01,2013-04-10 10:25:00,
2013-04-10 06:29:00,53.7,52.6,29.99,NE,52,0.0,0.0,96,0.00,,---,0.00,VWS V14.01,2013-04-10 10:29:00,
2013-04-10 06:30:00,54.5,52.8,29.99,NE,53,0.0,0.0,94,0.00,,---,0.00,VWS V14.01,2013-04-10 10:30:00,
2013-04-10 06:34:00,53.7,52.6,29.99,NE,52,0.0,0.0,96,0.00,,---,0.00,VWS V14.01,2013-04-10 10:34:00,
2013-04-10 06:35:00,54.4,52.7,29.99,NE,52,0.0,0.0,94,0.00,,---,0.00,VWS V14.01,2013-04-10 10:35:00,
2013-04-10 06:39:00,53.9,52.8,29.99,NE,52,0.0,0.0,96,0.00,,---,0.00,VWS V14.01,2013-04-10 10:39:00,
2013-04-10 06:40:00,54.2,52.5,29.99,NE,53,0.0,0.0,94,0.00,,---,0.00,VWS V14.01,2013-04-10 10:40:00,
2013-04-10 06:44:00,53.9,52.8,29.99,NE,52,0.0,0.0,96,0.00,,---,0.00,VWS V14.01,2013-04-10 10:44:00,
2013-04-10 06:45:00,54.1,52.4,29.99,NE,52,0.0,0.0,94,0.00,,---,0.00,VWS V14.01,2013-04-10 10:45:00,
2013-04-10 06:49:00,53.8,52.7,29.99,NE,52,0.0,0.0,96,0.00,,---,0.00,VWS V14.01,2013-04-10 10:49:00,
2013-04-10 06:50:00,54.0,52.3,29.99,NE,53,0.0,0.0,94,0.00,,---,0.00,VWS V14.01,2013-04-10 10:50:00,
2013-04-10 06:54:00,53.6,52.2,29.99,NE,52,0.0,0.0,95,0.00,,---,0.00,VWS V14.01,2013-04-10 10:54:00,
2013-04-10 06:55:00,53.8,52.1,29.99,NE,52,0.0,0.0,94,0.00,,---,0.00,VWS V14.01,2013-04-10 10:55:00,
2013-04-10 06:59:00,53.5,52.1,30.00,NE,52,0.0,0.0,95,0.00,,---,0.00,VWS V14.01,2013-04-10 10:59:00,
2013-04-10 07:00:00,53.9,52.5,30.00,NE,53,0.0,0.0,95,0.00,,---,0.00,VWS V14.01,2013-04-10 11:00:00,
2013-04-10 07:04:00,53.6,52.5,30.00,NE,52,0.0,0.0,96,0.00,,---,0.00,VWS V14.01,2013-04-10 11:04:00,
2013-04-10 07:05:00,53.8,52.1,29.99,NE,53,0.0,0.0,94,0.00,,---,0.00,VWS V14.01,2013-04-10 11:05:00,
2013-04-10 07:09:00,53.6,52.5,30.00,NE,52,0.0,0.0,96,0.00,,---,0.00,VWS V14.01,2013-04-10 11:09:00,
2013-04-10 07:10:00,53.6,52.2,29.99,NE,52,0.0,0.0,95,0.00,,---,0.00,VWS V14.01,2013-04-10 11:10:00,
2013-04-10 07:14:00,53.6,52.5,30.00,NE,52,0.0,0.0,96,0.00,,---,0.00,VWS V14.01,2013-04-10 11:14:00,
2013-04-10 07:15:00,53.5,52.1,29.99,NE,53,0.0,0.0,95,0.00,,---,0.00,VWS V14.01,2013-04-10 11:15:00,
2013-04-10 07:19:00,53.5,52.4,30.00,NE,52,0.0,0.0,96,0.00,,---,0.00,VWS V14.01,2013-04-10 11:19:00,
2013-04-10 07:20:00,53.5,52.1,29.99,NE,52,0.0,0.0,95,0.00,,---,0.00,VWS V14.01,2013-04-10 11:20:00,
2013-04-10 07:24:00,53.4,52.3,30.00,NE,53,0.0,0.0,96,0.00,,---,0.00,VWS V14.01,2013-04-10 11:24:00,
2013-04-10 07:25:00,53.5,52.4,29.99,NE,53,0.0,0.0,96,0.00,,---,0.00,VWS V14.01,2013-04-10 11:25:00,
2013-04-10 07:29:00,53.6,52.8,30.00,NE,52,0.0,0.0,97,0.00,,---,0.00,VWS V14.01,2013-04-10 11:29:00,
2013-04-10 07:30:00,53.6,52.5,29.99,NE,52,0.0,0.0,96,0.00,,---,0.00,VWS V14.01,2013-04-10 11:30:00,
2013-04-10 07:34:00,53.8,52.7,30.00,NE,53,0.0,0.0,96,0.00,,---,0.00,VWS V14.01,2013-04-10 11:34:00,
2013-04-10 07:35:00,53.8,52.7,29.99,NE,52,0.0,0.0,96,0.00,,---,0.00,VWS V14.01,2013-04-10 11:35:00,
2013-04-10 07:39:00,53.8,52.7,30.00,NE,52,0.0,0.0,96,0.00,,---,0.00,VWS V14.01,2013-04-10 11:39:00,
2013-04-10 07:40:00,53.9,53.1,29.99,NE,53,0.0,0.0,97,0.00,,---,0.00,VWS V14.01,2013-04-10 11:40:00,
2013-04-10 07:44:00,53.8,52.7,30.00,NE,53,0.0,0.0,96,0.00,,---,0.00,VWS V14.01,2013-04-10 11:44:00,
2013-04-10 07:45:00,53.9,52.8,29.99,NE,53,0.0,0.0,96,0.00,,---,0.00,VWS V14.01,2013-04-10 11:45:00,
2013-04-10 07:49:00,54.0,52.9,30.00,NE,53,0.0,0.0,96,0.00,,---,0.00,VWS V14.01,2013-04-10 11:49:00,
2013-04-10 07:50:00,53.8,52.7,29.99,NE,53,0.0,0.0,96,0.00,,---,0.00,VWS V14.01,2013-04-10 11:50:00,
2013-04-10 07:54:00,54.4,53.3,30.01,NE,52,0.0,0.0,96,0.00,,---,0.00,VWS V14.01,2013-04-10 11:54:00,
2013-04-10 07:55:00,53.6,52.2,29.99,NE,53,0.0,0.0,95,0.00,,---,0.00,VWS V14.01,2013-04-10 11:55:00,
2013-04-10 07:59:00,54.7,53.6,30.01,NE,52,0.0,0.0,96,0.00,,---,0.00,VWS V14.01,2013-04-10 11:59:00,
2013-04-10 08:00:00,53.5,52.4,29.99,NE,52,0.0,0.0,96,0.00,,---,0.00,VWS V14.01,2013-04-10 12:00:00,
2013-04-10 08:04:00,55.1,53.7,30.01,NE,52,0.0,0.0,95,0.00,,---,0.00,VWS V14.01,2013-04-10 12:04:00,
2013-04-10 08:05:00,53.5,52.4,29.99,NE,52,0.0,0.0,96,0.00,,---,0.00,VWS V14.01,2013-04-10 12:05:00,
2013-04-10 08:09:00,55.6,54.2,30.01,NE,52,0.0,0.0,95,0.00,,---,0.00,VWS V14.01,2013-04-10 12:09:00,
2013-04-10 08:10:00,53.6,52.5,30.00,NE,53,0.0,0.0,96,0.00,,---,0.00,VWS V14.01,2013-04-10 12:10:00,
2013-04-10 08:14:00,55.8,53.8,30.02,NE,53,0.0,0.0,93,0.00,,---,0.00,VWS V14.01,2013-04-10 12:14:00,
2013-04-10 08:15:00,53.6,52.5,30.00,NE,53,0.0,0.0,96,0.00,,---,0.00,VWS V14.01,2013-04-10 12:15:00,
2013-04-10 08:19:00,55.6,53.6,30.02,NE,52,0.0,0.0,93,0.00,,---,0.00,VWS V14.01,2013-04-10 12:19:00,
2013-04-10 08:20:00,53.4,52.3,30.00,NE,52,0.0,0.0,96,0.00,,---,0.00,VWS V14.01,2013-04-10 12:20:00,
2013-04-10 08:24:00,56.1,54.4,30.02,NE,52,0.0,0.0,94,0.00,,---,0.00,VWS V14.01,2013-04-10 12:24:00,
2013-04-10 08:25:00,53.4,52.3,30.00,NE,53,0.0,0.0,96,0.00,,---,0.00,VWS V14.01,2013-04-10 12:25:00,
2013-04-10 08:29:00,56.8,54.8,30.02,NE,53,0.0,0.0,93,0.00,,---,0.00,VWS V14.01,2013-04-10 12:29:00,
2013-04-10 08:30:00,53.7,52.9,30.00,NE,52,0.0,0.0,97,0.00,,---,0.00,VWS V14.01,2013-04-10 12:30:00,
2013-04-10 08:34:00,58.4,56.4,30.03,NE,52,0.0,0.0,93,0.00,,---,0.00,VWS V14.01,2013-04-10 12:34:00,
2013-04-10 08:35:00,53.8,52.7,30.00,NE,52,0.0,0.0,96,0.00,,---,0.00,VWS V14.01,2013-04-10 12:35:00,
2013-04-10 08:39:00,60.0,57.1,30.03,NE,53,0.0,0.0,90,0.00,,---,0.00,VWS V14.01,2013-04-10 12:39:00,
2013-04-10 08:40:00,53.7,52.6,30.00,NE,53,0.0,0.0,96,0.00,,---,0.00,VWS V14.01,2013-04-10 12:40:00,
2013-04-10 08:44:00,60.9,56.7,30.03,NE,53,0.0,0.0,86,0.00,,---,0.00,VWS V14.01,2013-04-10 12:44:00,
2013-04-10 08:45:00,53.8,52.7,30.00,NE,52,0.0,0.0,96,0.00,,---,0.00,VWS V14.01,2013-04-10 12:45:00,
2013-04-10 08:49:00,61.9,57.3,30.03,NE,52,0.0,0.0,85,0.00,,---,0.00,VWS V14.01,2013-04-10 12:49:00,
2013-04-10 08:50:00,54.1,53.0,30.00,NE,53,0.0,0.0,96,0.00,,---,0.00,VWS V14.01,2013-04-10 12:50:00,
2013-04-10 08:54:00,62.8,57.2,30.03,NE,52,0.0,0.0,82,0.00,,---,0.00,VWS V14.01,2013-04-10 12:54:00,
2013-04-10 08:55:00,54.4,53.3,30.01,NE,52,0.0,0.0,96,0.00,,---,0.00,VWS V14.01,2013-04-10 12:55:00,
2013-04-10 08:59:00,64.0,58.1,30.03,NE,52,0.0,0.0,81,0.00,,---,0.00,VWS V14.01,2013-04-10 12:59:00,
2013-04-10 09:00:00,54.7,53.6,30.01,NE,52,0.0,0.0,96,0.00,,---,0.00,VWS V14.01,2013-04-10 13:00:00,
2013-04-10 09:04:00,65.1,58.1,30.03,NNE,30,0.0,0.0,78,0.00,,---,0.00,VWS V14.01,2013-04-10 13:04:00,
2013-04-10 09:05:00,55.2,53.8,30.01,NE,52,0.0,0.0,95,0.00,,---,0.00,VWS V14.01,2013-04-10 13:05:00,
2013-04-10 09:09:00,65.8,58.4,30.03,North,360,1.0,1.0,77,0.00,,---,0.00,VWS V14.01,2013-04-10 13:09:00,
2013-04-10 09:10:00,55.6,53.9,30.01,NE,52,0.0,0.0,94,0.00,,---,0.00,VWS V14.01,2013-04-10 13:10:00,
2013-04-10 09:14:00,67.1,58.5,30.04,North,359,0.0,1.0,74,0.00,,---,0.00,VWS V14.01,2013-04-10 13:14:00,
2013-04-10 09:15:00,55.7,53.7,30.02,NE,52,0.0,0.0,93,0.00,,---,0.00,VWS V14.01,2013-04-10 13:15:00,
2013-04-10 09:19:00,68.5,58.7,30.04,North,360,0.0,1.0,71,0.00,,---,0.00,VWS V14.01,2013-04-10 13:19:00,
2013-04-10 09:20:00,55.7,53.7,30.02,NE,52,0.0,0.0,93,0.00,,---,0.00,VWS V14.01,2013-04-10 13:20:00,
2013-04-10 09:24:00,68.9,58.3,30.05,North,360,0.0,1.0,69,0.00,,---,0.00,VWS V14.01,2013-04-10 13:24:00,
2013-04-10 09:25:00,56.2,54.2,30.02,NE,52,0.0,0.0,93,0.00,,---,0.00,VWS V14.01,2013-04-10 13:25:00,
2013-04-10 09:29:00,69.2,59.0,30.05,North,360,1.0,2.0,70,0.00,,---,0.00,VWS V14.01,2013-04-10 13:29:00,
2013-04-10 09:30:00,57.0,55.0,30.02,NE,52,0.0,0.0,93,0.00,,---,0.00,VWS V14.01,2013-04-10 13:30:00,
2013-04-10 09:34:00,69.7,58.7,30.05,NNW,330,1.0,2.0,68,0.00,,---,0.00,VWS V14.01,2013-04-10 13:34:00,
2013-04-10 09:35:00,58.7,56.7,30.03,NE,52,0.0,0.0,93,0.00,,---,0.00,VWS V14.01,2013-04-10 13:35:00,
2013-04-10 09:39:00,70.0,58.5,30.05,NNE,23,4.0,5.0,67,0.00,,---,0.00,VWS V14.01,2013-04-10 13:39:00,
2013-04-10 09:40:00,60.2,57.0,30.03,NE,53,0.0,0.0,89,0.00,,---,0.00,VWS V14.01,2013-04-10 13:40:00,
2013-04-10 09:44:00,69.4,58.4,30.05,NE,34,3.0,3.0,68,0.00,,---,0.00,VWS V14.01,2013-04-10 13:44:00,
2013-04-10 09:45:00,61.0,56.8,30.03,NE,52,0.0,0.0,86,0.00,,---,0.00,VWS V14.01,2013-04-10 13:45:00,
2013-04-10 09:49:00,69.4,58.4,30.06,NNE,24,3.0,3.0,68,0.00,,---,0.00,VWS V14.01,2013-04-10 13:49:00,
2013-04-10 09:50:00,62.2,57.6,30.03,NE,52,0.0,0.0,85,0.00,,---,0.00,VWS V14.01,2013-04-10 13:50:00,
2013-04-10 09:54:00,69.9,58.5,30.06,North,4,0.0,6.0,67,0.00,,---,0.00,VWS V14.01,2013-04-10 13:54:00,
2013-04-10 09:55:00,62.9,57.7,30.03,NE,52,0.0,0.0,83,0.00,,---,0.00,VWS V14.01,2013-04-10 13:55:00,
2013-04-10 09:59:00,70.4,59.3,30.06,ENE,69,1.0,3.0,68,0.00,,---,0.00,VWS V14.01,2013-04-10 13:59:00,
2013-04-10 10:00:00,64.1,57.8,30.03,NE,52,0.0,0.0,80,0.00,,---,0.00,VWS V14.01,2013-04-10 14:00:00,
2013-04-10 10:04:00,70.9,59.4,30.06,NW,315,0.0,2.0,67,0.00,,---,0.00,VWS V14.01,2013-04-10 14:04:00,
2013-04-10 10:05:00,65.2,58.2,30.03,NNE,27,0.0,0.0,78,0.00,,---,0.00,VWS V14.01,2013-04-10 14:05:00,
2013-04-10 10:09:00,71.4,59.0,30.06,NE,37,0.0,5.0,65,0.00,,---,0.00,VWS V14.01,2013-04-10 14:09:00,
2013-04-10 10:10:00,65.9,58.5,30.03,North,360,0.0,1.0,77,0.00,,---,0.00,VWS V14.01,2013-04-10 14:10:00,
2013-04-10 10:14:00,71.9,59.5,30.06,West,273,2.0,5.0,65,0.00,,---,0.00,VWS V14.01,2013-04-10 14:14:00,
2013-04-10 10:15:00,67.3,59.1,30.04,North,360,0.0,1.0,75,0.00,,---,0.00,VWS V14.01,2013-04-10 14:15:00,
2013-04-10 10:20:00,72.4,59.1,30.06,NNE,20,6.0,6.0,63,0.00,,---,0.00,VWS V14.01,2013-04-10 14:20:00,
2013-04-10 10:25:00,72.5,59.6,30.06,NNE,33,2.0,6.0,64,0.00,,---,0.00,VWS V14.01,2013-04-10 14:25:00,
2013-04-10 10:30:00,72.6,59.3,30.06,NE,49,1.0,6.0,63,0.00,,---,0.00,VWS V14.01,2013-04-10 14:30:00,
2013-04-10 10:35:00,72.6,59.3,30.06,NE,50,2.0,7.0,63,0.00,,---,0.00,VWS V14.01,2013-04-10 14:35:00,
2013-04-10 10:40:00,73.3,59.5,30.05,East,101,2.0,5.0,62,0.00,,---,0.00,VWS V14.01,2013-04-10 14:40:00,
2013-04-10 10:45:00,73.8,59.5,30.05,East,96,2.0,5.0,61,0.00,,---,0.00,VWS V14.01,2013-04-10 14:45:00,
2013-04-10 10:50:00,74.3,59.5,30.05,NNW,336,7.0,10.0,60,0.00,,---,0.00,VWS V14.01,2013-04-10 14:50:00,
2013-04-10 10:55:00,74.7,59.9,30.05,ENE,68,4.0,6.0,60,0.00,,---,0.00,VWS V14.01,2013-04-10 14:55:00,
2013-04-10 11:00:00,74.4,59.2,30.05,ENE,59,4.0,7.0,59,0.00,,---,0.00,VWS V14.01,2013-04-10 15:00:00,
2013-04-10 11:05:00,74.6,59.8,30.05,NNW,332,3.0,9.0,60,0.00,,---,0.00,VWS V14.01,2013-04-10 15:05:00,
2013-04-10 11:10:00,75.1,59.8,30.05,North,6,4.0,8.0,59,0.00,,---,0.00,VWS V14.01,2013-04-10 15:10:00,
2013-04-10 11:15:00,76.1,60.3,30.05,ENE,67,3.0,6.0,58,0.00,,---,0.00,VWS V14.01,2013-04-10 15:15:00,
2013-04-10 11:20:00,76.2,60.4,30.05,NNE,24,3.0,7.0,58,0.00,,---,0.00,VWS V14.01,2013-04-10 15:20:00,
2013-04-10 11:25:00,76.0,59.7,30.04,NNE,24,10.0,12.0,57,0.00,,---,0.00,VWS V14.01,2013-04-10 15:25:00,
2013-04-10 11:30:00,76.4,60.1,30.04,NW,308,3.0,13.0,57,0.00,,---,0.00,VWS V14.01,2013-04-10 15:30:00,
2013-04-10 11:35:00,77.4,60.0,30.05,West,277,2.0,6.0,55,0.00,,---,0.00,VWS V14.01,2013-04-10 15:35:00,
2013-04-10 11:40:00,78.0,60.0,30.05,NW,307,3.0,10.0,54,0.00,,---,0.00,VWS V14.01,2013-04-10 15:40:00,
2013-04-10 11:45:00,78.0,60.5,30.05,North,6,4.0,4.0,55,0.00,,---,0.00,VWS V14.01,2013-04-10 15:45:00,
2013-04-10 11:50:00,78.1,59.6,30.05,East,84,1.0,7.0,53,0.00,,---,0.00,VWS V14.01,2013-04-10 15:50:00,
2013-04-10 11:55:00,78.9,60.3,30.04,WNW,283,4.0,6.0,53,0.00,,---,0.00,VWS V14.01,2013-04-10 15:55:00,
2013-04-10 12:00:00,79.0,60.4,30.04,NNW,333,1.0,8.0,53,0.00,,---,0.00,VWS V14.01,2013-04-10 16:00:00,
2013-04-10 12:05:00,79.0,59.9,30.04,North,11,2.0,8.0,52,0.00,,---,0.00,VWS V14.01,2013-04-10 16:05:00,
2013-04-10 12:10:00,78.9,59.2,30.04,SE,131,3.0,11.0,51,0.00,,---,0.00,VWS V14.01,2013-04-10 16:10:00,
2013-04-10 12:15:00,78.6,60.1,30.04,ENE,75,6.0,10.0,53,0.00,,---,0.00,VWS V14.01,2013-04-10 16:15:00,
2013-04-10 12:20:00,78.7,59.6,30.04,NE,50,3.0,14.0,52,0.00,,---,0.00,VWS V14.01,2013-04-10 16:20:00,
2013-04-10 12:25:00,78.8,59.7,30.03,North,358,4.0,10.0,52,0.00,,---,0.00,VWS V14.01,2013-04-10 16:25:00,
2013-04-10 12:30:00,79.1,60.0,30.04,ENE,62,3.0,11.0,52,0.00,,---,0.00,VWS V14.01,2013-04-10 16:30:00,
2013-04-10 12:35:00,79.0,59.9,30.03,East,83,9.0,9.0,52,0.00,,---,0.00,VWS V14.01,2013-04-10 16:35:00,
2013-04-10 12:40:00,79.2,59.5,30.03,East,101,8.0,9.0,51,0.00,,---,0.00,VWS V14.01,2013-04-10 16:40:00,
2013-04-10 12:45:00,79.5,60.3,30.03,WNW,291,4.0,5.0,52,0.00,,---,0.00,VWS V14.01,2013-04-10 16:45:00,
2013-04-10 12:50:00,80.0,59.7,30.03,East,94,8.0,10.0,50,0.00,,---,0.00,VWS V14.01,2013-04-10 16:50:00,
2013-04-10 12:55:00,79.3,60.2,30.02,NE,50,3.0,5.0,52,0.00,,---,0.00,VWS V14.01,2013-04-10 16:55:00,
2013-04-10 13:00:00,80.4,59.5,30.03,NNE,30,5.0,7.0,49,0.00,,---,0.00,VWS V14.01,2013-04-10 17:00:00,
2013-04-10 13:05:00,80.6,59.7,30.02,East,95,4.0,8.0,49,0.00,,---,0.00,VWS V14.01,2013-04-10 17:05:00,
2013-04-10 13:10:00,80.7,60.3,30.02,North,1,4.0,7.0,50,0.00,,---,0.00,VWS V14.01,2013-04-10 17:10:00,
2013-04-10 13:15:00,80.7,60.3,30.02,NE,43,1.0,4.0,50,0.00,,---,0.00,VWS V14.01,2013-04-10 17:15:00,
2013-04-10 13:20:00,81.2,60.8,30.02,NNW,347,3.0,4.0,50,0.00,,---,0.00,VWS V14.01,2013-04-10 17:20:00,
2013-04-10 13:25:00,81.9,59.7,30.01,NW,311,4.0,4.0,47,0.00,,---,0.00,VWS V14.01,2013-04-10 17:25:00,
2013-04-10 13:30:00,82.1,60.5,30.01,ENE,73,5.0,5.0,48,0.00,,---,0.00,VWS V14.01,2013-04-10 17:30:00,
2013-04-10 13:35:00,82.1,60.5,30.01,NNE,33,1.0,4.0,48,0.00,,---,0.00,VWS V14.01,2013-04-10 17:35:00,
2013-04-10 13:40:00,81.7,59.5,30.00,NNE,12,2.0,3.0,47,0.00,,---,0.00,VWS V14.01,2013-04-10 17:40:00,
2013-04-10 13:45:00,81.7,60.1,30.01,ENE,72,7.0,9.0,48,0.00,,---,0.00,VWS V14.01,2013-04-10 17:45:00,
2013-04-10 13:50:00,81.5,60.5,30.00,East,96,10.0,12.0,49,0.00,,---,0.00,VWS V14.01,2013-04-10 17:50:00,
2013-04-10 13:55:00,81.1,59.6,30.00,ENE,63,10.0,10.0,48,0.00,,---,0.00,VWS V14.01,2013-04-10 17:55:00,
2013-04-10 14:00:00,81.1,60.2,30.00,East,79,4.0,6.0,49,0.00,,---,0.00,VWS V14.01,2013-04-10 18:00:00,
2013-04-10 14:05:00,81.5,59.9,30.00,East,87,10.0,10.0,48,0.00,,---,0.00,VWS V14.01,2013-04-10 18:05:00,
2013-04-10 14:10:00,81.5,59.9,30.00,East,100,4.0,8.0,48,0.00,,---,0.00,VWS V14.01,2013-04-10 18:10:00,
2013-04-10 14:15:00,81.2,60.2,30.00,North,8,6.0,11.0,49,0.00,,---,0.00,VWS V14.01,2013-04-10 18:15:00,
2013-04-10 14:20:00,81.2,60.8,30.02,NNW,328,2.0,10.0,50,0.00,,---,0.00,VWS V14.01,2013-04-10 18:20:00,
2013-04-10 14:21:00,81.4,59.8,29.99,SE,125,6.0,9.0,48,0.00,,---,0.00,VWS V14.01,2013-04-10 18:21:00,
2013-04-10 14:25:00,81.9,59.7,30.01,NNE,15,4.0,7.0,47,0.00,,---,0.00,VWS V14.01,2013-04-10 18:25:00,
2013-04-10 14:26:00,81.2,59.7,29.99,NE,55,6.0,9.0,48,0.00,,---,0.00,VWS V14.01,2013-04-10 18:26:00,
2013-04-10 14:30:00,82.1,60.5,30.01,WNW,296,4.0,7.0,48,0.00,,---,0.00,VWS V14.01,2013-04-10 18:30:00,
2013-04-10 14:31:00,81.7,61.3,29.99,NNE,26,9.0,9.0,50,0.00,,---,0.00,VWS V14.01,2013-04-10 18:31:00,
2013-04-10 14:35:00,82.2,60.6,30.01,NNE,20,4.0,12.0,48,0.00,,---,0.00,VWS V14.01,2013-04-10 18:35:00,
2013-04-10 14:36:00,82.3,59.5,29.99,NE,49,9.0,12.0,46,0.00,,---,0.00,VWS V14.01,2013-04-10 18:36:00,
2013-04-10 14:40:00,81.8,59.6,30.01,ESE,111,2.0,10.0,47,0.00,,---,0.00,VWS V14.01,2013-04-10 18:40:00,
2013-04-10 14:41:00,82.0,59.8,29.99,NW,323,3.0,8.0,47,0.00,,---,0.00,VWS V14.01,2013-04-10 18:41:00,
2013-04-10 14:45:00,81.7,60.1,30.00,NE,56,4.0,8.0,48,0.00,,---,0.00,VWS V14.01,2013-04-10 18:45:00,
2013-04-10 14:46:00,82.4,59.6,29.98,NNE,24,6.0,11.0,46,0.00,,---,0.00,VWS V14.01,2013-04-10 18:46:00,
2013-04-10 14:50:00,81.6,59.4,30.00,East,81,9.0,10.0,47,0.00,,---,0.00,VWS V14.01,2013-04-10 18:50:00,
2013-04-10 14:51:00,82.7,59.8,29.98,East,98,6.0,11.0,46,0.00,,---,0.00,VWS V14.01,2013-04-10 18:51:00,
2013-04-10 14:55:00,81.1,59.6,30.00,East,97,5.0,16.0,48,0.00,,---,0.00,VWS V14.01,2013-04-10 18:55:00,
2013-04-10 14:56:00,82.7,59.8,29.98,East,89,3.0,5.0,46,0.00,,---,0.00,VWS V14.01,2013-04-10 18:56:00,
2013-04-10 15:00:00,81.1,59.6,30.00,NE,43,6.0,11.0,48,0.00,,---,0.00,VWS V14.01,2013-04-10 19:00:00,
2013-04-10 15:01:00,82.7,59.8,29.98,ENE,60,5.0,5.0,46,0.00,,---,0.00,VWS V14.01,2013-04-10 19:01:00,
2013-04-10 15:05:00,81.6,60.0,30.00,ENE,60,10.0,12.0,48,0.00,,---,0.00,VWS V14.01,2013-04-10 19:05:00,
2013-04-10 15:06:00,82.4,59.0,29.97,North,5,2.0,6.0,45,0.00,,---,0.00,VWS V14.01,2013-04-10 19:06:00,
2013-04-10 15:10:00,81.5,59.9,30.00,NNE,26,4.0,12.0,48,0.00,,---,0.00,VWS V14.01,2013-04-10 19:10:00,
2013-04-10 15:11:00,82.5,59.7,29.97,North,359,1.0,4.0,46,0.00,,---,0.00,VWS V14.01,2013-04-10 19:11:00,
2013-04-10 15:15:00,81.2,60.2,30.00,ENE,58,11.0,12.0,49,0.00,,---,0.00,VWS V14.01,2013-04-10 19:15:00,
2013-04-10 15:16:00,83.5,59.9,29.97,ENE,70,4.0,7.0,45,0.00,,---,0.00,VWS V14.01,2013-04-10 19:16:00,
2013-04-10 15:20:00,81.4,59.8,29.99,ENE,71,9.0,12.0,48,0.00,,---,0.00,VWS V14.01,2013-04-10 19:20:00,
2013-04-10 15:21:00,83.7,59.5,29.97,NNE,15,6.0,11.0,44,0.00,,---,0.00,VWS V14.01,2013-04-10 19:21:00,
2013-04-10 15:25:00,81.2,60.2,29.99,ENE,59,8.0,12.0,49,0.00,,---,0.00,VWS V14.01,2013-04-10 19:25:00,
2013-04-10 15:26:00,83.3,59.1,29.96,NW,308,4.0,10.0,44,0.00,,---,0.00,VWS V14.01,2013-04-10 19:26:00,
2013-04-10 15:30:00,81.4,60.4,29.99,NE,43,1.0,9.0,49,0.00,,---,0.00,VWS V14.01,2013-04-10 19:30:00,
2013-04-10 15:32:00,83.6,59.4,29.96,North,359,6.0,8.0,44,0.00,,---,0.00,VWS V14.01,2013-04-10 19:32:00,
2013-04-10 15:35:00,82.3,60.1,29.99,NNE,20,7.0,13.0,47,0.00,,---,0.00,VWS V14.01,2013-04-10 19:35:00,
2013-04-10 15:37:00,83.7,58.8,29.96,NE,37,5.0,10.0,43,0.00,,---,0.00,VWS V14.01,2013-04-10 19:37:00,
2013-04-10 15:40:00,82.0,60.4,29.99,NE,39,8.0,12.0,48,0.00,,---,0.00,VWS V14.01,2013-04-10 19:40:00,
2013-04-10 15:42:00,83.6,58.8,29.95,East,79,10.0,13.0,43,0.00,,---,0.00,VWS V14.01,2013-04-10 19:42:00,
2013-04-10 15:45:00,82.5,59.7,29.98,East,95,8.0,8.0,46,0.00,,---,0.00,VWS V14.01,2013-04-10 19:45:00,
2013-04-10 15:47:00,83.9,59.7,29.95,NE,53,6.0,7.0,44,0.00,,---,0.00,VWS V14.01,2013-04-10 19:47:00,
2013-04-10 15:50:00,82.6,59.8,29.98,NNE,15,6.0,11.0,46,0.00,,---,0.00,VWS V14.01,2013-04-10 19:50:00,
2013-04-10 15:52:00,84.0,59.8,29.95,NE,44,3.0,6.0,44,0.00,,---,0.00,VWS V14.01,2013-04-10 19:52:00,
2013-04-10 15:55:00,82.6,59.1,29.98,NNW,336,2.0,15.0,45,0.00,,---,0.00,VWS V14.01,2013-04-10 19:55:00,
2013-04-10 15:57:00,83.8,58.9,29.95,NNE,27,4.0,12.0,43,0.00,,---,0.00,VWS V14.01,2013-04-10 19:57:00,
2013-04-10 16:00:00,82.7,59.2,29.98,ENE,78,1.0,8.0,45,0.00,,---,0.00,VWS V14.01,2013-04-10 20:00:00,
2013-04-10 16:02:00,83.3,58.5,29.94,NW,318,5.0,7.0,43,0.00,,---,0.00,VWS V14.01,2013-04-10 20:02:00,
2013-04-10 16:05:00,82.4,59.0,29.98,North,4,5.0,14.0,45,0.00,,---,0.00,VWS V14.01,2013-04-10 20:05:00,
2013-04-10 16:07:00,83.4,58.6,29.94,NE,43,7.0,8.0,43,0.00,,---,0.00,VWS V14.01,2013-04-10 20:07:00,
2013-04-10 16:10:00,82.3,59.5,29.97,ENE,72,2.0,6.0,46,0.00,,---,0.00,VWS V14.01,2013-04-10 20:10:00,
2013-04-10 16:12:00,83.5,58.0,29.94,NNE,19,2.0,17.0,42,0.00,,---,0.00,VWS V14.01,2013-04-10 20:12:00,
2013-04-10 16:15:00,83.4,59.2,29.97,NNW,340,3.0,12.0,44,0.00,,---,0.00,VWS V14.01,2013-04-10 20:15:00,
2013-04-10 16:17:00,84.0,58.5,29.94,ENE,66,8.0,10.0,42,0.00,,---,0.00,VWS V14.01,2013-04-10 20:17:00,
2013-04-10 16:20:00,83.7,59.5,29.97,ENE,66,9.0,12.0,44,0.00,,---,0.00,VWS V14.01,2013-04-10 20:20:00,
2013-04-10 16:23:00,83.7,58.8,29.94,North,6,3.0,10.0,43,0.00,,---,0.00,VWS V14.01,2013-04-10 20:23:00,
2013-04-10 16:25:00,83.5,59.3,29.97,NW,306,3.0,11.0,44,0.00,,---,0.00,VWS V14.01,2013-04-10 20:25:00,
2013-04-10 16:28:00,84.1,59.2,29.94,NE,43,1.0,7.0,43,0.00,,---,0.00,VWS V14.01,2013-04-10 20:28:00,
2013-04-10 16:30:00,83.2,59.7,29.96,NNW,338,1.0,10.0,45,0.00,,---,0.00,VWS V14.01,2013-04-10 20:30:00,
2013-04-10 16:33:00,84.5,58.9,29.93,North,352,4.0,13.0,42,0.00,,---,0.00,VWS V14.01,2013-04-10 20:33:00,
2013-04-10 16:35:00,83.6,59.4,29.96,East,101,3.0,9.0,44,0.00,,---,0.00,VWS V14.01,2013-04-10 20:35:00,
2013-04-10 16:38:00,84.3,58.1,29.93,North,5,3.0,10.0,41,0.00,,---,0.00,VWS V14.01,2013-04-10 20:38:00,
2013-04-10 16:40:00,83.7,58.8,29.95,ESE,103,4.0,13.0,43,0.00,,---,0.00,VWS V14.01,2013-04-10 20:40:00,
2013-04-10 16:43:00,84.3,58.7,29.93,NW,311,3.0,7.0,42,0.00,,---,0.00,VWS V14.01,2013-04-10 20:43:00,
2013-04-10 16:45:00,83.5,58.7,29.95,NE,43,4.0,13.0,43,0.00,,---,0.00,VWS V14.01,2013-04-10 20:45:00,
2013-04-10 16:48:00,84.0,58.5,29.92,East,79,4.0,11.0,42,0.00,,---,0.00,VWS V14.01,2013-04-10 20:48:00,
2013-04-10 16:50:00,84.0,59.1,29.95,East,94,3.0,12.0,43,0.00,,---,0.00,VWS V14.01,2013-04-10 20:50:00,
2013-04-10 16:53:00,84.1,58.5,29.92,North,11,3.0,7.0,42,0.00,,---,0.00,VWS V14.01,2013-04-10 20:53:00,
2013-04-10 16:55:00,84.0,58.5,29.95,NW,315,3.0,11.0,42,0.00,,---,0.00,VWS V14.01,2013-04-10 20:55:00,
2013-04-10 16:58:00,84.5,58.2,29.92,North,5,11.0,11.0,41,0.00,,---,0.00,VWS V14.01,2013-04-10 20:58:00,
2013-04-10 17:00:00,83.5,58.7,29.95,NNW,347,4.0,12.0,43,0.00,,---,0.00,VWS V14.01,2013-04-10 21:00:00,
2013-04-10 17:03:00,84.1,58.5,29.92,NNE,33,8.0,13.0,42,0.00,,---,0.00,VWS V14.01,2013-04-10 21:03:00,
2013-04-10 17:05:00,83.3,58.5,29.94,East,93,7.0,8.0,43,0.00,,---,0.00,VWS V14.01,2013-04-10 21:05:00,
2013-04-10 17:08:00,83.8,58.9,29.92,ENE,57,3.0,11.0,43,0.00,,---,0.00,VWS V14.01,2013-04-10 21:08:00,
2013-04-10 17:10:00,83.4,58.6,29.94,NNE,32,6.0,17.0,43,0.00,,---,0.00,VWS V14.01,2013-04-10 21:10:00,
2013-04-10 17:13:00,84.1,57.9,29.91,WSW,255,5.0,5.0,41,0.00,,---,0.00,VWS V14.01,2013-04-10 21:13:00,
2013-04-10 17:15:00,83.7,58.8,29.94,ENE,76,7.0,17.0,43,0.00,,---,0.00,VWS V14.01,2013-04-10 21:15:00,
2013-04-10 17:18:00,84.1,58.5,29.91,NE,53,5.0,11.0,42,0.00,,---,0.00,VWS V14.01,2013-04-10 21:18:00,
2013-04-10 17:20:00,83.9,59.0,29.94,East,100,7.0,10.0,43,0.00,,---,0.00,VWS V14.01,2013-04-10 21:20:00,
2013-04-10 17:23:00,83.9,58.4,29.91,North,11,2.0,8.0,42,0.00,,---,0.00,VWS V14.01,2013-04-10 21:23:00,
2013-04-10 17:25:00,83.9,58.4,29.94,East,83,4.0,10.0,42,0.00,,---,0.00,VWS V14.01,2013-04-10 21:25:00,
2013-04-10 17:28:00,84.4,58.2,29.91,NNW,347,9.0,12.0,41,0.00,,---,0.00,VWS V14.01,2013-04-10 21:28:00,
2013-04-10 17:30:00,84.5,59.6,29.93,ENE,68,5.0,7.0,43,0.00,,---,0.00,VWS V14.01,2013-04-10 21:30:00,
2013-04-10 17:33:00,84.2,58.0,29.91,WNW,289,9.0,13.0,41,0.00,,---,0.00,VWS V14.01,2013-04-10 21:33:00,
2013-04-10 17:35:00,84.3,58.7,29.93,NNE,30,7.0,13.0,42,0.00,,---,0.00,VWS V14.01,2013-04-10 21:35:00,
2013-04-10 17:38:00,84.1,58.5,29.91,SSE,149,5.0,8.0,42,0.00,,---,0.00,VWS V14.01,2013-04-10 21:38:00,
2013-04-10 17:40:00,84.2,58.0,29.93,North,8,4.0,10.0,41,0.00,,---,0.00,VWS V14.01,2013-04-10 21:40:00,
2013-04-10 17:43:00,84.3,58.1,29.90,NNE,29,10.0,10.0,41,0.00,,---,0.00,VWS V14.01,2013-04-10 21:43:00,
2013-04-10 17:45:00,84.4,58.8,29.93,East,84,5.0,14.0,42,0.00,,---,0.00,VWS V14.01,2013-04-10 21:45:00,
2013-04-10 17:48:00,84.2,58.0,29.90,NNW,344,4.0,10.0,41,0.00,,---,0.00,VWS V14.01,2013-04-10 21:48:00,
2013-04-10 17:50:00,84.0,58.5,29.92,North,8,2.0,11.0,42,0.00,,---,0.00,VWS V14.01,2013-04-10 21:50:00,
2013-04-10 17:53:00,84.3,58.1,29.90,NW,315,1.0,8.0,41,0.00,,---,0.00,VWS V14.01,2013-04-10 21:53:00,
2013-04-10 17:55:00,84.2,58.6,29.92,NNE,18,4.0,11.0,42,0.00,,---,0.00,VWS V14.01,2013-04-10 21:55:00,
2013-04-10 17:59:00,84.7,57.7,29.90,NNE,15,4.0,9.0,40,0.00,,---,0.00,VWS V14.01,2013-04-10 21:59:00,
2013-04-10 18:00:00,84.3,58.7,29.92,NE,39,7.0,15.0,42,0.00,,---,0.00,VWS V14.01,2013-04-10 22:00:00,
2013-04-10 18:04:00,84.3,58.1,29.90,WNW,302,2.0,9.0,41,0.00,,---,0.00,VWS V14.01,2013-04-10 22:04:00,
2013-04-10 18:05:00,83.8,57.6,29.92,ENE,60,9.0,16.0,41,0.00,,---,0.00,VWS V14.01,2013-04-10 22:05:00,
2013-04-10 18:09:00,83.9,58.4,29.89,East,79,9.0,13.0,42,0.00,,---,0.00,VWS V14.01,2013-04-10 22:09:00,
2013-04-10 18:10:00,83.9,57.7,29.92,NNE,19,3.0,11.0,41,0.00,,---,0.00,VWS V14.01,2013-04-10 22:10:00,
2013-04-10 18:14:00,83.9,57.7,29.89,ESE,113,9.0,12.0,41,0.00,,---,0.00,VWS V14.01,2013-04-10 22:14:00,
2013-04-10 18:15:00,84.1,57.9,29.91,North,8,11.0,14.0,41,0.00,,---,0.00,VWS V14.01,2013-04-10 22:15:00,
2013-04-10 18:19:00,83.6,57.4,29.89,ENE,68,6.0,10.0,41,0.00,,---,0.00,VWS V14.01,2013-04-10 22:19:00,
2013-04-10 18:20:00,84.0,57.8,29.92,North,4,4.0,11.0,41,0.00,,---,0.00,VWS V14.01,2013-04-10 22:20:00,
2013-04-10 18:24:00,83.1,57.7,29.89,NE,47,4.0,11.0,42,0.00,,---,0.00,VWS V14.01,2013-04-10 22:24:00,
2013-04-10 18:25:00,84.0,58.5,29.91,NW,319,2.0,8.0,42,0.00,,---,0.00,VWS V14.01,2013-04-10 22:25:00,
2013-04-10 18:29:00,82.9,57.5,29.89,NNE,24,5.0,11.0,42,0.00,,---,0.00,VWS V14.01,2013-04-10 22:29:00,
2013-04-10 18:30:00,84.4,57.5,29.91,ENE,73,6.0,12.0,40,0.00,,---,0.00,VWS V14.01,2013-04-10 22:30:00,
2013-04-10 18:34:00,82.9,57.5,29.89,NNW,332,2.0,13.0,42,0.00,,---,0.00,VWS V14.01,2013-04-10 22:34:00,
2013-04-10 18:35:00,84.1,57.9,29.91,North,359,7.0,14.0,41,0.00,,---,0.00,VWS V14.01,2013-04-10 22:35:00,
2013-04-10 18:39:00,83.2,57.8,29.88,West,275,1.0,5.0,42,0.00,,---,0.00,VWS V14.01,2013-04-10 22:39:00,
2013-04-10 18:40:00,84.1,58.5,29.90,NW,308,5.0,8.0,42,0.00,,---,0.00,VWS V14.01,2013-04-10 22:40:00,
2013-04-10 18:44:00,83.2,57.8,29.88,NE,54,2.0,8.0,42,0.00,,---,0.00,VWS V14.01,2013-04-10 22:44:00,
2013-04-10 18:45:00,84.3,58.1,29.90,ENE,63,6.0,10.0,41,0.00,,---,0.00,VWS V14.01,2013-04-10 22:45:00,
2013-04-10 18:49:00,83.4,58.6,29.88,ENE,60,6.0,9.0,43,0.00,,---,0.00,VWS V14.01,2013-04-10 22:49:00,
2013-04-10 18:50:00,84.2,58.0,29.90,East,86,8.0,14.0,41,0.00,,---,0.00,VWS V14.01,2013-04-10 22:50:00,
2013-04-10 18:54:00,83.2,57.8,29.88,NNW,345,5.0,9.0,42,0.00,,---,0.00,VWS V14.01,2013-04-10 22:54:00,
2013-04-10 18:55:00,84.5,58.2,29.90,North,1,0.0,8.0,41,0.00,,---,0.00,VWS V14.01,2013-04-10 22:55:00,
2013-04-10 18:59:00,82.8,58.0,29.87,NE,56,3.0,9.0,43,0.00,,---,0.00,VWS V14.01,2013-04-10 22:59:00,
2013-04-10 19:00:00,84.6,58.3,29.90,NNE,17,3.0,9.0,41,0.00,,---,0.00,VWS V14.01,2013-04-10 23:00:00,
2013-04-10 19:04:00,82.8,58.0,29.87,ENE,65,5.0,5.0,43,0.00,,---,0.00,VWS V14.01,2013-04-10 23:04:00,
2013-04-10 19:05:00,84.3,58.1,29.90,East,85,4.0,9.0,41,0.00,,---,0.00,VWS V14.01,2013-04-10 23:05:00,
2013-04-10 19:09:00,82.5,57.8,29.87,East,91,5.0,9.0,43,0.00,,---,0.00,VWS V14.01,2013-04-10 23:09:00,
2013-04-10 19:10:00,83.8,58.3,29.89,North,354,4.0,13.0,42,0.00,,---,0.00,VWS V14.01,2013-04-10 23:10:00,
2013-04-10 19:14:00,82.3,57.6,29.87,ENE,71,3.0,10.0,43,0.00,,---,0.00,VWS V14.01,2013-04-10 23:14:00,
2013-04-10 19:15:00,83.8,57.6,29.89,NNE,33,5.0,12.0,41,0.00,,---,0.00,VWS V14.01,2013-04-10 23:15:00,
2013-04-10 19:19:00,82.1,57.4,29.86,ESE,116,4.0,11.0,43,0.00,,---,0.00,VWS V14.01,2013-04-10 23:19:00,
2013-04-10 19:20:00,83.4,57.9,29.89,ENE,68,6.0,10.0,42,0.00,,---,0.00,VWS V14.01,2013-04-10 23:20:00,
2013-04-10 19:24:00,81.8,57.8,29.86,ENE,66,6.0,8.0,44,0.00,,---,0.00,VWS V14.01,2013-04-10 23:24:00,
2013-04-10 19:25:00,83.1,57.7,29.89,NE,47,8.0,11.0,42,0.00,,---,0.00,VWS V14.01,2013-04-10 23:25:00,
2013-04-10 19:29:00,81.5,58.1,29.86,NE,51,2.0,6.0,45,0.00,,---,0.00,VWS V14.01,2013-04-10 23:29:00,
2013-04-10 19:30:00,82.9,58.1,29.89,WNW,297,4.0,11.0,43,0.00,,---,0.00,VWS V14.01,2013-04-10 23:30:00,
2013-04-10 19:34:00,81.2,57.9,29.86,NNE,12,2.0,9.0,45,0.00,,---,0.00,VWS V14.01,2013-04-10 23:34:00,
2013-04-10 19:35:00,83.0,58.2,29.89,North,4,3.0,13.0,43,0.00,,---,0.00,VWS V14.01,2013-04-10 23:35:00,
2013-04-10 19:39:00,80.7,58.0,29.85,NE,49,3.0,6.0,46,0.00,,---,0.00,VWS V14.01,2013-04-10 23:39:00,
2013-04-10 19:40:00,83.3,57.8,29.88,ESE,106,4.0,10.0,42,0.00,,---,0.00,VWS V14.01,2013-04-10 23:40:00,
2013-04-10 19:44:00,80.2,58.2,29.85,NE,44,5.0,7.0,47,0.00,,---,0.00,VWS V14.01,2013-04-10 23:44:00,
2013-04-10 19:45:00,83.3,58.5,29.88,NE,54,0.0,8.0,43,0.00,,---,0.00,VWS V14.01,2013-04-10 23:45:00,
2013-04-10 19:49:00,79.8,58.4,29.85,NE,44,1.0,2.0,48,0.00,,---,0.00,VWS V14.01,2013-04-10 23:49:00,
2013-04-10 19:50:00,83.3,57.8,29.88,ENE,72,6.0,9.0,42,0.00,,---,0.00,VWS V14.01,2013-04-10 23:50:00,
2013-04-10 19:54:00,79.5,58.1,29.85,NE,39,1.0,4.0,48,0.00,,---,0.00,VWS V14.01,2013-04-10 23:54:00,
2013-04-10 19:55:00,83.1,58.3,29.88,ENE,65,6.0,14.0,43,0.00,,---,0.00,VWS V14.01,2013-04-10 23:55:00,
2013-04-10 19:59:00,79.0,58.2,29.85,NE,42,0.0,2.0,49,0.00,,---,0.00,VWS V14.01,2013-04-10 23:59:00,
2013-04-10 20:00:00,82.8,58.0,29.87,NNW,328,1.0,9.0,43,0.00,,---,0.00,VWS V14.01,2013-04-11 00:00:00,
2013-04-10 20:04:00,78.6,58.4,29.85,NE,41,1.0,1.0,50,0.00,,---,0.00,VWS V14.01,2013-04-11 00:04:00,
2013-04-10 20:05:00,82.7,58.0,29.87,ENE,64,5.0,7.0,43,0.00,,---,0.00,VWS V14.01,2013-04-11 00:05:00,
2013-04-10 20:09:00,78.0,57.9,29.85,NE,41,0.0,0.0,50,0.00,,---,0.00,VWS V14.01,2013-04-11 00:09:00,
2013-04-10 20:10:00,82.5,57.8,29.87,East,80,7.0,11.0,43,0.00,,---,0.00,VWS V14.01,2013-04-11 00:10:00,
2013-04-10 20:14:00,77.4,58.4,29.85,NE,41,0.0,0.0,52,0.00,,---,0.00,VWS V14.01,2013-04-11 00:14:00,
2013-04-10 20:15:00,82.3,58.2,29.86,NE,44,1.0,10.0,44,0.00,,---,0.00,VWS V14.01,2013-04-11 00:15:00,
2013-04-10 20:19:00,76.9,58.5,29.85,NE,41,0.0,0.0,53,0.00,,---,0.00,VWS V14.01,2013-04-11 00:19:00,
2013-04-10 20:20:00,82.0,57.3,29.86,NE,56,8.0,12.0,43,0.00,,---,0.00,VWS V14.01,2013-04-11 00:20:00,
2013-04-10 20:24:00,76.3,58.5,29.84,NE,41,0.0,0.0,54,0.00,,---,0.00,VWS V14.01,2013-04-11 00:24:00,
2013-04-10 20:25:00,81.8,57.8,29.86,East,80,3.0,8.0,44,0.00,,---,0.00,VWS V14.01,2013-04-11 00:25:00,
2013-04-10 20:29:00,75.6,58.3,29.84,NNE,17,0.0,0.0,55,0.00,,---,0.00,VWS V14.01,2013-04-11 00:29:00,
2013-04-10 20:30:00,81.4,58.0,29.86,NNE,23,2.0,6.0,45,0.00,,---,0.00,VWS V14.01,2013-04-11 00:30:00,
2013-04-10 20:34:00,75.3,58.0,29.84,NNE,17,0.0,0.0,55,0.00,,---,0.00,VWS V14.01,2013-04-11 00:34:00,
2013-04-10 20:35:00,81.1,58.4,29.86,NE,54,4.0,9.0,46,0.00,,---,0.00,VWS V14.01,2013-04-11 00:35:00,
2013-04-10 20:39:00,74.9,58.2,29.83,North,360,0.0,0.0,56,0.00,,---,0.00,VWS V14.01,2013-04-11 00:39:00,
2013-04-10 20:40:00,80.7,58.0,29.85,NNE,30,4.0,6.0,46,0.00,,---,0.00,VWS V14.01,2013-04-11 00:40:00,
2013-04-10 20:44:00,74.5,58.3,29.83,North,359,0.0,1.0,57,0.00,,---,0.00,VWS V14.01,2013-04-11 00:44:00,
2013-04-10 20:45:00,80.2,58.2,29.85,NE,37,1.0,7.0,47,0.00,,---,0.00,VWS V14.01,2013-04-11 00:45:00,
2013-04-10 20:49:00,74.3,58.1,29.83,North,360,2.0,3.0,57,0.00,,---,0.00,VWS V14.01,2013-04-11 00:49:00,
2013-04-10 20:50:00,79.7,58.3,29.85,NNE,26,1.0,2.0,48,0.00,,---,0.00,VWS V14.01,2013-04-11 00:50:00,
2013-04-10 20:54:00,74.6,57.9,29.83,NNW,341,0.0,1.0,56,0.00,,---,0.00,VWS V14.01,2013-04-11 00:54:00,
2013-04-10 20:55:00,79.4,58.0,29.85,ENE,63,1.0,4.0,48,0.00,,---,0.00,VWS V14.01,2013-04-11 00:55:00,
2013-04-10 20:59:00,74.5,57.8,29.83,NNW,341,0.0,1.0,56,0.00,,---,0.00,VWS V14.01,2013-04-11 00:59:00,
2013-04-10 21:00:00,79.0,58.2,29.85,NE,41,0.0,2.0,49,0.00,,---,0.00,VWS V14.01,2013-04-11 01:00:00,
2013-04-10 21:04:00,74.1,57.9,29.82,NNW,341,0.0,0.0,57,0.00,,---,0.00,VWS V14.01,2013-04-11 01:04:00,
2013-04-10 21:05:00,78.5,58.3,29.85,NE,41,0.0,1.0,50,0.00,,---,0.00,VWS V14.01,2013-04-11 01:05:00,
2013-04-10 21:09:00,73.9,57.7,29.82,NNW,341,0.0,0.0,57,0.00,,---,0.00,VWS V14.01,2013-04-11 01:09:00,
2013-04-10 21:10:00,77.9,58.3,29.85,NE,41,0.0,0.0,51,0.00,,---,0.00,VWS V14.01,2013-04-11 01:10:00,
2013-04-10 21:14:00,73.7,57.5,29.82,NNW,342,0.0,0.0,57,0.00,,---,0.00,VWS V14.01,2013-04-11 01:14:00,
2013-04-10 21:15:00,77.3,58.3,29.85,NE,41,0.0,0.0,52,0.00,,---,0.00,VWS V14.01,2013-04-11 01:15:00,
2013-04-10 21:19:00,73.3,57.7,29.82,NNW,341,0.0,0.0,58,0.00,,---,0.00,VWS V14.01,2013-04-11 01:19:00,
2013-04-10 21:20:00,76.8,57.9,29.85,NE,41,0.0,0.0,52,0.00,,---,0.00,VWS V14.01,2013-04-11 01:20:00,
2013-04-10 21:24:00,73.0,57.8,29.82,NNW,341,0.0,0.0,59,0.00,,---,0.00,VWS V14.01,2013-04-11 01:24:00,
2013-04-10 21:25:00,76.2,58.9,29.84,NE,41,0.0,0.0,55,0.00,,---,0.00,VWS V14.01,2013-04-11 01:25:00,
2013-04-10 21:29:00,72.5,57.8,29.82,NNW,341,0.0,0.0,60,0.00,,---,0.00,VWS V14.01,2013-04-11 01:29:00,
2013-04-10 21:30:00,75.5,58.2,29.84,NNE,18,0.0,0.0,55,0.00,,---,0.00,VWS V14.01,2013-04-11 01:30:00,
2013-04-10 21:34:00,71.9,57.7,29.82,NNW,341,0.0,1.0,61,0.00,,---,0.00,VWS V14.01,2013-04-11 01:34:00,
2013-04-10 21:35:00,75.2,57.9,29.84,NNE,18,0.0,0.0,55,0.00,,---,0.00,VWS V14.01,2013-04-11 01:35:00,
2013-04-10 21:39:00,71.8,57.6,29.82,NNW,341,0.0,1.0,61,0.00,,---,0.00,VWS V14.01,2013-04-11 01:39:00,
2013-04-10 21:40:00,74.8,58.1,29.83,North,360,0.0,0.0,56,0.00,,---,0.00,VWS V14.01,2013-04-11 01:40:00,
2013-04-10 21:44:00,72.0,57.8,29.83,NNW,342,0.0,0.0,61,0.00,,---,0.00,VWS V14.01,2013-04-11 01:44:00,
2013-04-10 21:45:00,74.5,58.3,29.83,North,360,0.0,1.0,57,0.00,,---,0.00,VWS V14.01,2013-04-11 01:45:00,
2013-04-10 21:49:00,71.9,57.7,29.83,NNW,341,0.0,0.0,61,0.00,,---,0.00,VWS V14.01,2013-04-11 01:49:00,
2013-04-10 21:50:00,74.4,58.2,29.83,NNW,340,1.0,3.0,57,0.00,,---,0.00,VWS V14.01,2013-04-11 01:50:00,
2013-04-10 21:54:00,71.7,57.5,29.83,NNW,341,0.0,1.0,61,0.00,,---,0.00,VWS V14.01,2013-04-11 01:54:00,
2013-04-10 21:55:00,74.6,57.9,29.83,NNW,341,0.0,1.0,56,0.00,,---,0.00,VWS V14.01,2013-04-11 01:55:00,
2013-04-10 21:59:00,71.6,57.5,29.82,North,351,1.0,1.0,61,0.00,,---,0.00,VWS V14.01,2013-04-11 01:59:00,
2013-04-10 22:00:00,74.4,58.2,29.83,NNW,342,0.0,1.0,57,0.00,,---,0.00,VWS V14.01,2013-04-11 02:00:00,
2013-04-10 22:04:00,72.0,57.8,29.83,NE,36,2.0,3.0,61,0.00,,---,0.00,VWS V14.01,2013-04-11 02:04:00,
2013-04-10 22:05:00,74.1,57.9,29.82,NNW,341,0.0,0.0,57,0.00,,---,0.00,VWS V14.01,2013-04-11 02:05:00,
2013-04-10 22:09:00,72.7,57.6,29.83,East,91,2.0,5.0,59,0.00,,---,0.00,VWS V14.01,2013-04-11 02:09:00,
2013-04-10 22:10:00,73.9,57.7,29.82,NNW,341,0.0,0.0,57,0.00,,---,0.00,VWS V14.01,2013-04-11 02:10:00,
2013-04-10 22:14:00,73.0,57.4,29.83,NNE,30,1.0,3.0,58,0.00,,---,0.00,VWS V14.01,2013-04-11 02:14:00,
2013-04-10 22:15:00,73.6,57.4,29.82,NNW,341,0.0,0.0,57,0.00,,---,0.00,VWS V14.01,2013-04-11 02:15:00,
2013-04-10 22:19:00,73.2,57.5,29.83,NE,37,1.0,6.0,58,0.00,,---,0.00,VWS V14.01,2013-04-11 02:19:00,
2013-04-10 22:20:00,73.3,57.7,29.82,NNW,341,0.0,0.0,58,0.00,,---,0.00,VWS V14.01,2013-04-11 02:20:00,
2013-04-10 22:24:00,73.3,57.7,29.82,NE,50,0.0,3.0,58,0.00,,---,0.00,VWS V14.01,2013-04-11 02:24:00,
2013-04-10 22:25:00,72.9,57.8,29.82,NNW,342,0.0,0.0,59,0.00,,---,0.00,VWS V14.01,2013-04-11 02:25:00,
2013-04-10 22:29:00,73.1,57.5,29.82,NE,50,2.0,2.0,58,0.00,,---,0.00,VWS V14.01,2013-04-11 02:29:00,
2013-04-10 22:30:00,72.4,58.2,29.82,NNW,341,0.0,0.0,61,0.00,,---,0.00,VWS V14.01,2013-04-11 02:30:00,
2013-04-10 22:35:00,72.7,57.6,29.83,NE,50,1.0,2.0,59,0.00,,---,0.00,VWS V14.01,2013-04-11 02:35:00,
2013-04-10 22:40:00,72.2,57.6,29.83,NE,50,0.0,1.0,60,0.00,,---,0.00,VWS V14.01,2013-04-11 02:40:00,
2013-04-10 22:45:00,71.7,57.5,29.83,NE,52,1.0,2.0,61,0.00,,---,0.00,VWS V14.01,2013-04-11 02:45:00,
2013-04-10 22:50:00,71.4,57.7,29.83,NE,52,0.0,1.0,62,0.00,,---,0.00,VWS V14.01,2013-04-11 02:50:00,
2013-04-10 22:55:00,70.8,57.6,29.83,NE,52,1.0,1.0,63,0.00,,---,0.00,VWS V14.01,2013-04-11 02:55:00,
2013-04-10 23:00:00,70.3,57.6,29.83,NE,52,0.0,1.0,64,0.00,,---,0.00,VWS V14.01,2013-04-11 03:00:00,
2013-04-10 23:05:00,69.8,57.5,29.83,NE,52,0.0,0.0,65,0.00,,---,0.00,VWS V14.01,2013-04-11 03:05:00,
2013-04-10 23:10:00,69.3,57.5,29.83,NE,52,0.0,0.0,66,0.00,,---,0.00,VWS V14.01,2013-04-11 03:10:00,
2013-04-10 23:15:00,68.8,57.4,29.83,NE,53,0.0,0.0,67,0.00,,---,0.00,VWS V14.01,2013-04-11 03:15:00,
2013-04-10 23:20:00,68.8,57.4,29.83,NE,52,0.0,1.0,67,0.00,,---,0.00,VWS V14.01,2013-04-11 03:20:00,
2013-04-10 23:25:00,69.3,57.5,29.84,ENE,65,0.0,3.0,66,0.00,,---,0.00,VWS V14.01,2013-04-11 03:25:00,
2013-04-10 23:30:00,69.6,57.3,29.84,NE,36,0.0,3.0,65,0.00,,---,0.00,VWS V14.01,2013-04-11 03:30:00,
2013-04-10 23:35:00,69.9,57.6,29.84,ENE,60,1.0,3.0,65,0.00,,---,0.00,VWS V14.01,2013-04-11 03:35:00,
2013-04-10 23:40:00,70.1,56.9,29.84,East,82,2.0,3.0,63,0.00,,---,0.00,VWS V14.01,2013-04-11 03:40:00,
2013-04-10 23:45:00,70.7,57.1,29.84,ENE,59,2.0,4.0,62,0.00,,---,0.00,VWS V14.01,2013-04-11 03:45:00,
2013-04-10 23:50:00,70.9,57.2,29.84,ENE,69,0.0,3.0,62,0.00,,---,0.00,VWS V14.01,2013-04-11 03:50:00,
2013-04-10 23:55:00,71.2,57.5,29.85,ENE,68,2.0,3.0,62,0.00,,---,0.00,VWS V14.01,2013-04-11 03:55:00,